Weather observations for the past three days for
Poplar Bluff, Poplar Bluff Municipal Airport
Imperial (Metric)
Date Time (cdt) Wind (mph) Vis. (mi.) Weather Sky Cond. Temperature (ºF) Relative Humidity Wind Chill (°F) Heat Index (°F) Pressure Precipitation (in)
Air Dwpt 6 hour altimeter (in) sea level (mb) 1 hr 3 hr 6 hr
Max. Min.
15 02:53 S 3 6.00 Fog/Mist CLR 75 72 90% 74 29.99 1014.7
15 01:53 SW 3 2.50 Fog/Mist CLR 75.9 72 88% 76 29.99 1014.9
15 00:53 SW 5 3.00 Fair with Haze CLR 77 72 88 77 85% 78 30 1015.1
14 23:53 S 5 3.00 Fog/Mist CLR 77 73 88% 78 30 1015.2
14 22:53 SW 7 2.50 Fair with Haze CLR 80.1 72 76% 84 30 1015.1
14 21:53 S 6 3.00 Fair with Haze CLR 81 73.9 79% 86 30 1015.3
14 20:53 S 5 10.00 Fair CLR 82.9 73.9 74% 89 30 1015.3
14 19:53 S 5 10.00 Fair CLR 84.9 75 72% 93 30 1015.4
14 18:53 SW 5 10.00 Fair CLR 88 73.9 91 88 63% 97 30.01 1015.6
14 17:53 S 8 10.00 Fair CLR 89.1 72 57% 96 30 1015.1
14 16:53 SW 6 10.00 Fair CLR 90 73.9 59% 99 30.02 1015.8
14 15:53 S 8 10.00 Fair CLR 90 73.9 59% 99 30.02 1016.0
14 14:53 S 13 G 22 10.00 Fair CLR 90 73 58% 98 30.04 1016.6
14 13:53 SW 12 10.00 Fair CLR 90 73 58% 98 30.06 1017.4
14 12:53 S 10 10.00 Fair CLR 90 73 90 75.9 58% 98 30.09 1018.2
14 11:53 SW 8 10.00 Fair CLR 89.1 73.9 61% 98 30.1 1018.7
14 10:53 SW 8 10.00 Fair CLR 87.1 75.9 70% 98 30.12 1019.2
14 09:53 S 6 10.00 Fair CLR 84.9 75.9 75% 94 30.13 1019.5
14 08:53 SW 7 10.00 Fair CLR 82 73.9 77% 88 30.12 1019.5
14 07:53 SW 5 10.00 Fair CLR 78.1 73.9 87% 81 30.12 1019.2
14 06:53 Calm 7.00 Fair CLR 75.9 73 77 73 91% 76 30.1 1018.7
14 05:53 Calm 7.00 Fair CLR 73.9 72 94% 30.1 1018.6
14 04:53 S 3 9.00 A Few Clouds FEW110 73.9 72 94% 30.09 1018.4
14 03:53 S 3 10.00 A Few Clouds FEW110 75.9 73 91% 76 30.08 1018.0
14 02:53 Calm 6.00 Fog/Mist CLR 75 73 94% 73 30.09 1018.4
14 01:53 Calm 7.00 Fair CLR 75.9 73.9 94% 75 30.11 1018.8
14 00:53 N 3 10.00 Fair CLR 77 73.9 87.1 75.9 90% 78 30.12 1019.4
13 23:53 Calm 6.00 Fog/Mist CLR 77 75 94% 78 30.13 1019.9
13 22:53 S 5 10.00 Fair CLR 78.1 75 90% 81 30.12 1019.4
13 21:53 SE 6 9.00 Fair CLR 79 75.9 90% 83 30.12 1019.4
13 20:53 Calm 10.00 Fair CLR 81 77 88% 88 30.12 1019.4
13 19:53 Calm 10.00 Fair CLR 84.9 75 72% 93 30.1 1018.7
13 18:53 SW 5 10.00 Fair CLR 87.1 75 90 87.1 67% 97 30.1 1018.8
13 17:53 S 9 10.00 Fair CLR 88 73.9 63% 97 30.09 1018.5
13 16:53 S 8 10.00 Fair CLR 89.1 75 63% 99 30.11 1019.0
13 15:53 S 9 10.00 Fair CLR 89.1 75 63% 99 30.12 1019.5
13 14:53 SW 7 10.00 A Few Clouds FEW038 89.1 75 63% 99 30.15 1020.3
13 13:53 S 9 10.00 A Few Clouds FEW044 FEW055 89.1 73.9 61% 98 30.17 1021.0
13 12:53 SW 7 10.00 Partly Cloudy SCT035 89.1 73.9 89.1 73.9 61% 98 30.19 1021.8
13 11:53 S 9 10.00 Fair CLR 87.1 73.9 65% 95 30.2 1022.0
13 10:53 SW 12 10.00 Fair CLR 86 75 70% 95 30.19 1021.9
13 09:53 SW 6 10.00 Fair CLR 84 73.9 72% 91 30.19 1021.7
13 08:53 Calm 10.00 Fair CLR 81 73.9 79% 86 30.19 1021.9
13 07:53 Calm 10.00 A Few Clouds FEW110 79 73.9 85% 83 30.18 1021.4
13 06:53 Calm 6.00 Fog/Mist BKN120 73.9 72 75.9 73 94% 30.18 1021.4
13 05:53 Calm 10.00 Mostly Cloudy BKN120 73 72 96% 30.16 1020.7
13 04:53 Calm 8.00 Fair CLR 73 71.1 94% 30.14 1020.1
13 03:53 Calm 8.00 Partly Cloudy SCT110 73.9 72 94% 30.12 1019.4
13 02:53 Calm 10.00 Mostly Cloudy BKN110 75 73 94% 73 30.12 1019.6
13 01:53 Calm 10.00 Mostly Cloudy BKN110 75 72 90% 74 30.12 1019.7
13 00:53 Calm 10.00 Overcast OVC110 75 73 82 75 94% 73 30.13 1019.7
12 23:53 Calm 10.00 A Few Clouds FEW100 75.9 73 91% 76 30.12 1019.5
12 22:53 Calm 10.00 Fair CLR 75 73 94% 73 30.12 1019.2
12 21:53 Calm 9.00 Fair CLR 75.9 73.9 94% 75 30.11 1019.1
12 20:53 Calm 10.00 Fair CLR 77 73.9 90% 78 30.1 1018.7
12 19:53 E 5 10.00 Fair CLR 79 73 82% 82 30.1 1018.7
12 18:53 E 5 10.00 Fair CLR 82 73 84.9 71.1 74% 87 30.08 1018.3 1.8
12 17:53 N 3 10.00 Fair CLR 84.9 71.1 63% 90 30.07 1017.8
12 16:53 Calm 10.00 Fair CLR 82 70 67% 86 30.09 1018.4
12 15:53 SW 6 10.00 Fair CLR 81 70 69% 84 30.09 1018.5 1.8
12 14:53 SE 5 10.00 Light Rain FEW045 SCT090 BKN110 72 69.1 91% 30.12 1019.5 0.15
12 13:53 Calm 1.00 Thunderstorm Heavy Rain BKN027 BKN070 OVC110 71.1 64 79% 30.13 1019.9 1.65
12 12:53 N 12 G 16 7.00 Thunderstorm in Vicinity BKN030 BKN100 82.9 73 88 73 72% 89 30.11 1019.1
12 11:53 S 9 7.00 A Few Clouds FEW070 86 73.9 67% 94 30.11 1019.1
12 10:53 SW 8 10.00 A Few Clouds FEW120 84.9 73.9 70% 92 30.12 1019.3
12 09:53 S 6 10.00 Partly Cloudy SCT100 80.1 73 79% 84 30.12 1019.2
12 08:53 SW 6 10.00 Overcast OVC100 78.1 73 85% 81 30.11 1019.1
12 07:53 SW 3 10.00 Mostly Cloudy BKN110 75.9 72 88% 76 30.1 1018.8
12 06:53 Calm 7.00 Partly Cloudy SCT110 73 72 75 71.1 96% 30.08 1018.1
12 05:53 Calm 1.75 Fog/Mist CLR 72 70 94% 30.07 1017.6
12 04:53 Calm 9.00 Fair CLR 72 70 94% 30.04 1016.8
12 03:53 Calm 7.00 Fair CLR 73 71.1 94% 30.03 1016.2
Date Time (cdt) Wind (mph) Vis. (mi.) Weather Sky Cond. Air Dwpt Max. Min. Relative Humidity Wind Chill (°F) Heat Index (°F) altimeter (in) sea level (mb) 1 hr 3 hr 6 hr
6 hour
Temperature (ºF) Pressure Precipitation (in)